Find Starlink 33982

NORAD ID: 63707 Int'l Des: 2025-087 Owner: SPXS Country: US Constellation: starlink operational
LEOCIRCULAR

Current View

Loading 3D Globe...

About Starlink 33982

Starlink 33982 (NORAD 63707) is a starlink constellation satellite (v2 mini) launched Apr 28, 2025 by SPXS of US. It operates in LEO, CIRCULAR orbit with a mass of 575.00 kg.

About Starlink 33982

Description loading...

Upcoming Passes

Passes for default location (London). Set your location on the main map for personalized predictions.

Altitude History

Loading altitude history...

Two-Line Element Set

1 63707U 25087L 26169.09682954 .00013601 00000-0 47010-3 0 9998
2 63707 53.1604 113.0861 0001531 81.5835 278.5339 15.30227397 64572
Epoch: Jun 18, 2026 • Age: 15 hours

Current Status

Altitude 476.2 km
Velocity 7.63 km/s
Sub-Earth Point 30.10°N, 102.01°E
Launch Date Apr 28, 2025
Age 1.1 years
Type internet

Technical Details

Classification Payload
Mass 575.00 kg
Dry Mass 530.00 kg
Total Mass 575.00 kg
Length 0.30 m
Diameter 4.10 m
Span 29.00 m
Shape Box + pan
Manufacturer SPXS
Bus Type Starlink V2MO
Phase Status In Orbit
Owner/State SPXS/US

Most Searched